Weather History for Provo, UT

Change the Weather History Date:

Sunday, December 11, 2011

  Actual Average Record
Temperature  
Mean Temperature 28 °F -  
Max Temperature 41 °F 36 °F 55 °F (1990)
Min Temperature 15 °F 22 °F 0 °F (2013)
Degree Days  
Heating Degree Days 37    
Moisture  
Dew Point 20 °F    
Average Humidity 82    
Maximum Humidity 100    
Minimum Humidity 49    
Precipitation  
Precipitation 0.00 in - - ()
Sea Level Pressure  
Sea Level Pressure 29.98 in    
Wind  
Wind Speed 1 mph (NE)    
Max Wind Speed 9 mph    
Max Gust Speed -    
Visibility 8 miles    
Events      
Averages and records for this station are not official NWS values.
T = Trace of Precipitation, MM = Missing Value Source: NWS Daily Summary

Daily Weather History Graph

Daily Weather History Graph

Search for Another Location

Airport:

Trip Planner

Search our weather history database for the weather conditions in past years. The results will help you decide how hot, cold, wet, or windy it might be!

Date:

Astronomy

Dec. 11, 2011 Rise Set
Actual Time 7:39 AM MST 5:01 PM MST
Civil Twilight 7:08 AM MST 5:31 PM MST
Nautical Twilight 6:34 AM MST 6:05 PM MST
Astronomical Twilight 6:01 AM MST 6:38 PM MST
Moon 6:14 PM MST (12/11) 8:30 AM MST (12/11)
Length of Visible Light 10h 23m
Length of Day
9h 21m
Full, 99% of the Moon is Illuminated
Dec 11
Full
Dec 17
Last Quarter
Dec 24
New
Dec 31
First Quarter
Jan 9
Full

Hourly Weather History & Observations

Time (MST) Temp. Windchill Dew Point Humidity Pressure Visibility Wind Dir Wind Speed Gust Speed Precip Events Conditions
12:15 AM 23.0 °F - 21.2 °F 93% 30.10 in 4.0 mi Calm Calm - N/A   Clear
12:35 AM 19.4 °F - 17.6 °F 93% 30.09 in 4.0 mi Calm Calm - N/A   Clear
12:55 AM 21.2 °F - 19.4 °F 93% 30.08 in 3.0 mi Calm Calm - N/A   Clear
1:15 AM 19.4 °F 14.3 °F 17.6 °F 93% 30.08 in 4.0 mi North 3.5 mph - N/A   Clear
1:35 AM 19.4 °F 14.3 °F 15.8 °F 86% 30.07 in 5.0 mi NNW 3.5 mph - N/A   Clear
1:55 AM 19.4 °F - 17.6 °F 93% 30.06 in 5.0 mi Calm Calm - N/A   Clear
2:15 AM 19.4 °F - 17.6 °F 93% 30.06 in 5.0 mi Calm Calm - N/A   Clear
2:35 AM 19.4 °F - 19.4 °F 100% 30.06 in 4.0 mi Calm Calm - N/A   Clear
2:55 AM 17.6 °F - 15.8 °F 93% 30.06 in 3.0 mi Calm Calm - N/A   Clear
3:15 AM 19.4 °F - 17.6 °F 93% 30.05 in 5.0 mi Calm Calm - N/A   Clear
3:35 AM 21.2 °F - 19.4 °F 93% 30.04 in 4.0 mi Calm Calm - N/A   Clear
3:55 AM 15.8 °F 8.6 °F 14.0 °F 93% 30.04 in 4.0 mi East 4.6 mph - N/A   Clear
4:15 AM 19.4 °F 12.8 °F 19.4 °F 100% 30.03 in 7.0 mi East 4.6 mph - N/A   Clear
4:35 AM 19.4 °F - 15.8 °F 86% 30.02 in 7.0 mi Calm Calm - N/A   Clear
5:15 AM 19.4 °F - 15.8 °F 86% 30.02 in 6.0 mi Calm Calm - N/A   Clear
5:35 AM 23.0 °F - 23.0 °F 100% 30.01 in 9.0 mi Calm Calm - N/A   Clear
5:55 AM 24.8 °F - 23.0 °F 93% 30.01 in 8.0 mi Calm Calm - N/A   Clear
6:15 AM 21.2 °F - 19.4 °F 93% 30.01 in 7.0 mi Calm Calm - N/A   Clear
6:35 AM 21.2 °F - 15.8 °F 80% 30.01 in 5.0 mi Calm Calm - N/A   Clear
6:48 AM 21.2 °F - 21.2 °F 100% 30.01 in 12.0 mi Calm Calm - N/A   Scattered Clouds
6:55 AM 21.2 °F - 19.4 °F 93% 30.01 in 7.0 mi Calm Calm - N/A   Clear
8:57 AM 26.6 °F - 24.8 °F 93% 30.01 in 12.0 mi Calm Calm - N/A   Mostly Cloudy
9:52 AM 30.2 °F - 24.8 °F 80% 30.02 in 12.0 mi Calm Calm - N/A   Mostly Cloudy
10:55 AM 32.0 °F - 24.8 °F 75% 30.00 in 12.0 mi Calm Calm - N/A   Scattered Clouds
11:51 AM 33.8 °F - 24.8 °F 70% 29.96 in 12.0 mi Calm Calm - N/A   Scattered Clouds
12:47 PM 37.4 °F 33.8 °F 24.8 °F 60% 29.92 in 12.0 mi Variable 4.6 mph - N/A   Scattered Clouds
1:52 PM 41.0 °F 39.0 °F 23.0 °F 49% 29.91 in 12.0 mi Variable 3.5 mph - N/A   Scattered Clouds
3:50 PM 39.2 °F 35.0 °F 21.2 °F 49% 29.88 in 15.0 mi Variable 5.8 mph - N/A   Mostly Cloudy
4:50 PM 35.6 °F 28.6 °F 19.4 °F 52% 29.87 in 15.0 mi WNW 9.2 mph - N/A   Mostly Cloudy
7:50 PM 26.6 °F - 21.2 °F 80% 29.87 in 15.0 mi Calm Calm - N/A   Scattered Clouds
8:53 PM 26.6 °F - 21.2 °F 80% 29.87 in 15.0 mi Calm Calm - N/A   Scattered Clouds
9:15 PM 30.2 °F 26.7 °F 21.2 °F 69% 29.87 in 10.0 mi SE 3.5 mph - N/A   Clear
9:35 PM 32.0 °F 26.4 °F 21.2 °F 64% 29.88 in 10.0 mi WSW 5.8 mph - N/A   Clear
10:15 PM 33.8 °F 28.6 °F 21.2 °F 60% 29.88 in 10.0 mi ESE 5.8 mph - N/A   Clear
10:35 PM 28.4 °F 24.6 °F 19.4 °F 69% 29.89 in 10.0 mi NNW 3.5 mph - N/A   Clear
10:55 PM 33.8 °F 30.8 °F 19.4 °F 56% 29.89 in 10.0 mi East 3.5 mph - N/A   Clear
11:15 PM 30.2 °F - 19.4 °F 64% 29.88 in 10.0 mi Calm Calm - N/A   Clear
11:35 PM 26.6 °F - 23.0 °F 86% 29.89 in 10.0 mi Calm Calm - N/A   Clear
11:55 PM 24.8 °F 19.1 °F 19.4 °F 80% 29.89 in 10.0 mi East 4.6 mph - N/A   Clear